Burlington, VT

8:11 PM EST on November 14, 2019 (GMT -0500)
Burlington International

Weather History for KBTV - September, 2019

Change the Weather History Date:

Tuesday, September 17, 2019

  Actual Average Record
Temperature  
Mean Temperature 57 °F 60 °F  
Max Temperature 68 °F 70 °F 87 °F (2018)
Min Temperature 45 °F 50 °F 34 °F (1961)
Degree Days  
Heating Degree Days 8 6  
Month to date heating degree days 48 64  
Since 1 July heating degree days 52 106  
Cooling Degree Days 0 1  
Month to date cooling degree days 9 35  
Year to date cooling degree days 589 483  
Growing Degree Days 6 (Base 50)    
Moisture  
Dew Point 47 °F    
Average Humidity 71    
Maximum Humidity 93    
Minimum Humidity 48    
Precipitation  
Precipitation 0.00 in 0.13 in 2.09 in (1999)
Month to date precipitation 2.23 1.95  
Year to date precipitation 28.52 26.02  
Snow  
Snow 0.00 in 0.00 in 0.00 in (2002)
Month to date snowfall 0.0 0.0  
Since 1 July snowfall 0.0 0.0  
Since 1 September snowfall 0.0 0.0  
Snow Depth 0.00 in    
Sea Level Pressure  
Sea Level Pressure 30.19 in    
Wind  
Wind Speed 5 mph (North)    
Max Wind Speed 16 mph    
Max Gust Speed 20 mph    
Visibility 10 miles    
Events      
T = Trace of Precipitation, MM = Missing Value Source: NWS Daily Summary

Daily Weather History Graph

Daily Weather History Graph

Search for Another Location

Airport or City:

Astronomy

Sep. 17, 2019 Rise Set
Actual Time 6:33 AM EDT 6:59 PM EDT
Civil Twilight 6:04 AM EDT 7:29 PM EDT
Nautical Twilight 5:29 AM EDT 8:03 PM EDT
Astronomical Twilight 4:54 AM EDT 8:38 PM EDT
Moon 8:54 PM EDT (9/17) 9:41 AM EDT (9/17)
Length of Visible Light 13h 24m
Length of Day
12h 26m
Waning Gibbous, 89% of the Moon is Illuminated
Sep 17
Waning Gibbous
Sep 21
Last Quarter
Sep 28
New
Oct 5
First Quarter
Oct 13
Full

Hourly Weather History & Observations

Time (EDT) Temp. Dew Point Humidity Pressure Visibility Wind Dir Wind Speed Gust Speed Precip Events Conditions
12:54 AM 50.0 °F 46.0 °F 86% 30.12 in 10.0 mi Calm Calm - N/A   Clear
1:54 AM 48.9 °F 45.0 °F 86% 30.13 in 10.0 mi Calm Calm - N/A   Clear
2:54 AM 48.0 °F 45.0 °F 89% 30.13 in 10.0 mi Calm Calm - N/A   Clear
3:54 AM 46.9 °F 45.0 °F 93% 30.14 in 10.0 mi Calm Calm - N/A   Clear
4:54 AM 46.9 °F 44.1 °F 90% 30.14 in 10.0 mi Calm Calm - N/A   Clear
5:54 AM 46.0 °F 43.0 °F 89% 30.16 in 10.0 mi Calm Calm - N/A   Clear
6:54 AM 46.0 °F 43.0 °F 89% 30.18 in 10.0 mi Calm Calm - N/A   Clear
7:54 AM 48.0 °F 44.1 °F 86% 30.20 in 10.0 mi East 3.5 mph - N/A   Clear
8:54 AM 55.0 °F 48.0 °F 77% 30.21 in 10.0 mi Calm Calm - N/A   Clear
9:54 AM 60.1 °F 48.0 °F 64% 30.22 in 10.0 mi North 8.1 mph - N/A   Partly Cloudy
10:54 AM 61.0 °F 48.0 °F 62% 30.22 in 10.0 mi North 9.2 mph - N/A   Scattered Clouds
11:54 AM 63.0 °F 48.0 °F 58% 30.22 in 10.0 mi NW 13.8 mph - N/A   Scattered Clouds
12:54 PM 64.9 °F 48.0 °F 54% 30.21 in 10.0 mi North 11.5 mph - N/A   Scattered Clouds
1:54 PM 66.9 °F 48.0 °F 51% 30.20 in 10.0 mi North 9.2 mph - N/A   Scattered Clouds
2:54 PM 66.9 °F 46.9 °F 49% 30.20 in 10.0 mi North 9.2 mph - N/A   Scattered Clouds
3:54 PM 66.9 °F 46.0 °F 47% 30.19 in 10.0 mi NNW 10.4 mph - N/A   Scattered Clouds
4:54 PM 66.0 °F 46.9 °F 50% 30.19 in 10.0 mi NNW 16.1 mph - N/A   Scattered Clouds
5:54 PM 64.9 °F 46.9 °F 52% 30.20 in 10.0 mi North 10.4 mph - N/A   Partly Cloudy
6:54 PM 63.0 °F 48.0 °F 58% 30.20 in 10.0 mi North 8.1 mph - N/A   Scattered Clouds
7:54 PM 60.1 °F 48.9 °F 67% 30.22 in 10.0 mi NNE 3.5 mph - N/A   Clear
8:54 PM 57.0 °F 48.0 °F 72% 30.22 in 10.0 mi Calm Calm - N/A   Clear
9:54 PM 55.0 °F 48.0 °F 77% 30.23 in 10.0 mi Calm Calm - N/A   Partly Cloudy
10:54 PM 53.1 °F 48.0 °F 83% 30.24 in 10.0 mi East 5.8 mph - N/A   Mostly Cloudy
11:54 PM 51.1 °F 46.9 °F 86% 30.24 in 10.0 mi NE 3.5 mph - N/A   Clear